Weather History for Homer, AK

Change the Weather History Date:

Sunday, September 8, 2013

  Actual Average Record
Temperature  
Mean Temperature 57 °F -  
Max Temperature 61 °F 56 °F 66 °F (1989)
Min Temperature 53 °F 41 °F 29 °F (1970)
Degree Days  
Heating Degree Days 8    
Growing Degree Days 7 (Base 50)    
Moisture  
Dew Point 45 °F    
Average Humidity 68    
Maximum Humidity 83    
Minimum Humidity 48    
Precipitation  
Precipitation 0.00 in - - ()
Sea Level Pressure  
Sea Level Pressure 29.67 in    
Wind  
Wind Speed 9 mph (SSW)    
Max Wind Speed 20 mph    
Max Gust Speed 24 mph    
Visibility 10 miles    
Events      
Averages and records for this station are not official NWS values.
T = Trace of Precipitation, MM = Missing Value Source: NWS Daily Summary

Daily Weather History Graph

Daily Weather History Graph

Search for Another Location

Airport:

Trip Planner

Search our weather history database for the weather conditions in past years. The results will help you decide how hot, cold, wet, or windy it might be!

Date:

Astronomy

Sep. 08, 2013 Rise Set
Actual Time 7:19 AM AKDT 8:46 PM AKDT
Civil Twilight 6:36 AM AKDT 9:28 PM AKDT
Nautical Twilight 5:42 AM AKDT 10:22 PM AKDT
Astronomical Twilight 4:38 AM AKDT 11:24 PM AKDT
Moon 11:52 AM AKDT (9/8) 9:18 PM AKDT (9/8)
Length of Visible Light 14h 52m
Length of Day
13h 27m
Waxing Crescent, 12% of the Moon is Illuminated
Sep 8
Waxing Crescent
Sep 12
First Quarter
Sep 19
Full
Sep 26
Last Quarter
Oct 4
New

Hourly Weather History & Observations

Time (AKDT) Temp. Dew Point Humidity Pressure Visibility Wind Dir Wind Speed Gust Speed Precip Events Conditions
12:30 AM 53.6 °F 46.4 °F 77% 29.55 in 10.0 mi WSW 6.9 mph - N/A   Overcast
12:39 AM 53.6 °F 46.4 °F 77% 29.55 in 10.0 mi West 3.5 mph - N/A   Overcast
12:53 AM 53.1 °F 46.9 °F 80% 29.55 in 10.0 mi West 3.5 mph - N/A   Overcast
1:00 AM 53.6 °F 46.4 °F 77% 29.55 in 10.0 mi West 3.5 mph - N/A   Overcast
1:53 AM 53.1 °F 46.9 °F 80% 29.54 in 10.0 mi WSW 12.7 mph - N/A   Overcast
2:53 AM 53.1 °F 48.0 °F 83% 29.54 in 10.0 mi SW 11.5 mph - N/A   Overcast
3:53 AM 53.1 °F 48.0 °F 83% 29.55 in 10.0 mi SW 13.8 mph - N/A   Overcast
4:53 AM 54.0 °F 48.0 °F 80% 29.55 in 10.0 mi SW 15.0 mph - N/A   Overcast
5:53 AM 54.0 °F 46.9 °F 77% 29.57 in 10.0 mi SW 19.6 mph - N/A   Overcast
6:53 AM 54.0 °F 46.9 °F 77% 29.59 in 10.0 mi SW 16.1 mph - N/A   Overcast
7:53 AM 54.0 °F 46.0 °F 75% 29.61 in 10.0 mi SW 16.1 mph 21.9 mph N/A   Mostly Cloudy
8:53 AM 55.0 °F 45.0 °F 69% 29.62 in 10.0 mi SW 15.0 mph 23.0 mph N/A   Mostly Cloudy
9:53 AM 55.9 °F 44.1 °F 64% 29.65 in 10.0 mi SW 18.4 mph 24.2 mph N/A   Mostly Cloudy
10:53 AM 57.9 °F 45.0 °F 62% 29.68 in 10.0 mi SW 13.8 mph - N/A   Scattered Clouds
11:53 AM 57.9 °F 45.0 °F 62% 29.70 in 10.0 mi WSW 10.4 mph - N/A   Mostly Cloudy
12:53 PM 59.0 °F 46.0 °F 62% 29.73 in 10.0 mi SW 11.5 mph - N/A   Mostly Cloudy
1:53 PM 59.0 °F 45.0 °F 60% 29.75 in 10.0 mi SW 10.4 mph - N/A   Mostly Cloudy
2:53 PM 60.1 °F 45.0 °F 57% 29.76 in 10.0 mi South 8.1 mph - N/A   Scattered Clouds
3:53 PM 61.0 °F 41.0 °F 48% 29.77 in 10.0 mi South 4.6 mph - N/A   Clear
4:53 PM 60.1 °F 42.1 °F 51% 29.78 in 10.0 mi South 9.2 mph 16.1 mph N/A   Mostly Cloudy
5:53 PM 59.0 °F 44.1 °F 58% 29.80 in 10.0 mi Variable 5.8 mph - N/A   Overcast
6:53 PM 57.0 °F 44.1 °F 62% 29.80 in 10.0 mi ESE 6.9 mph - N/A   Overcast
7:53 PM 57.9 °F 43.0 °F 58% 29.80 in 10.0 mi ESE 6.9 mph - 0.00 in   Overcast
8:53 PM 57.0 °F 42.1 °F 57% 29.81 in 10.0 mi ESE 9.2 mph - N/A   Overcast
9:53 PM 57.0 °F 43.0 °F 59% 29.80 in 10.0 mi East 9.2 mph - N/A   Overcast
10:53 PM 54.0 °F 44.1 °F 69% 29.79 in 10.0 mi NE 3.5 mph - N/A   Overcast
11:53 PM 55.9 °F 42.1 °F 60% 29.78 in 10.0 mi East 5.8 mph - N/A   Overcast